Lincoln, NE

8:48 AM CST on November 17, 2019 (GMT -0600)
Lincoln Municipal

Weather History for KLNK - August, 2019

Change the Weather History Date:

Friday, August 30, 2019

  Actual Average Record
Temperature  
Mean Temperature 69 °F 73 °F  
Max Temperature 76 °F 85 °F 103 °F (1913)
Min Temperature 62 °F 61 °F 42 °F (1915)
Degree Days  
Heating Degree Days 0 1  
Month to date heating degree days 0 1  
Since 1 June heating degree days 6 18  
Since 1 July heating degree days 0 2  
Cooling Degree Days 4 8  
Month to date cooling degree days 302 317  
Year to date cooling degree days 1048 1028  
Since 1 June cooling degree days 976 949  
Growing Degree Days 18 (Base 50)    
Moisture  
Dew Point 58 °F    
Average Humidity 74    
Maximum Humidity 90    
Minimum Humidity 57    
Precipitation  
Precipitation 0.17 in 0.11 in 2.62 in (2011)
Month to date precipitation 2.62 3.37  
Year to date precipitation 24.49 21.46  
Snow  
Snow 0.00 in 0.00 in 0.00 in (2006)
Month to date snowfall 0.0 0.0  
Since 1 June snowfall 0.0 0.0  
Since 1 July snowfall 0.0 0.0  
Snow Depth 0.00 in    
Sea Level Pressure  
Sea Level Pressure 30.12 in    
Wind  
Wind Speed 8 mph (NE)    
Max Wind Speed 17 mph    
Max Gust Speed 22 mph    
Visibility 9 miles    
Events Rain , Thunderstorm    
T = Trace of Precipitation, MM = Missing Value Source: NWS Daily Summary

Daily Weather History Graph

Daily Weather History Graph

Search for Another Location

Airport or City:

Astronomy

Aug. 30, 2019 Rise Set
Actual Time 6:51 AM CDT 8:02 PM CDT
Civil Twilight 6:23 AM CDT 8:31 PM CDT
Nautical Twilight 5:49 AM CDT 9:04 PM CDT
Astronomical Twilight 5:14 AM CDT 9:40 PM CDT
Moon 6:53 AM CDT (8/30) 8:40 PM CDT (8/30)
Length of Visible Light 14h 07m
Length of Day
13h 11m
New Moon, 0% of the Moon is Illuminated
Aug 30
New Moon
Sep 5
First Quarter
Sep 13
Full
Sep 21
Last Quarter
Sep 28
New

Hourly Weather History & Observations

Time (CDT) Temp. Dew Point Humidity Pressure Visibility Wind Dir Wind Speed Gust Speed Precip Events Conditions
12:54 AM 70.0 °F 55.0 °F 59% 30.01 in 10.0 mi ENE 6.9 mph 17.3 mph N/A Thunderstorm Overcast
1:28 AM 68.0 °F 57.0 °F 68% 30.10 in 3.0 mi Calm Calm - 0.00 in Rain , Thunderstorm Thunderstorms and Rain
1:35 AM 66.9 °F 57.0 °F 70% 30.09 in 2.0 mi WNW 3.5 mph - 0.06 in Rain , Thunderstorm Thunderstorms and Rain
1:38 AM 66.9 °F 57.0 °F 70% 30.10 in 3.0 mi Variable 3.5 mph - 0.07 in Rain , Thunderstorm Light Rain
1:54 AM 66.0 °F 59.0 °F 78% 30.04 in 7.0 mi Calm Calm - 0.09 in Rain Light Rain
2:28 AM 64.0 °F 57.9 °F 80% 30.07 in 10.0 mi North 12.7 mph - 0.00 in Thunderstorm Mostly Cloudy
2:43 AM 64.0 °F 57.9 °F 80% 30.06 in 10.0 mi North 11.5 mph - 0.00 in   Overcast
2:54 AM 64.0 °F 59.0 °F 84% 30.04 in 10.0 mi NNW 15.0 mph - 0.00 in   Overcast
3:26 AM 63.0 °F 57.9 °F 84% 30.10 in 8.0 mi NNW 9.2 mph - 0.00 in Rain , Thunderstorm Rain
3:46 AM 62.1 °F 57.9 °F 86% 30.09 in 6.0 mi ENE 11.5 mph - 0.04 in Rain Rain
3:54 AM 62.1 °F 57.9 °F 86% 30.06 in 7.0 mi ENE 6.9 mph - 0.07 in Rain Rain
4:24 AM 63.0 °F 59.0 °F 87% 30.11 in 10.0 mi Calm Calm - 0.01 in Rain Light Rain
4:54 AM 62.1 °F 57.9 °F 86% 30.07 in 10.0 mi NNE 9.2 mph - 0.01 in   Overcast
5:07 AM 62.1 °F 57.9 °F 86% 30.10 in 10.0 mi North 8.1 mph - N/A   Overcast
5:54 AM 63.0 °F 59.0 °F 87% 30.09 in 10.0 mi North 5.8 mph - N/A   Overcast
6:24 AM 62.1 °F 59.0 °F 90% 30.13 in 10.0 mi North 8.1 mph - N/A   Overcast
6:54 AM 63.0 °F 57.9 °F 84% 30.11 in 10.0 mi North 8.1 mph - N/A   Overcast
7:09 AM 63.0 °F 57.9 °F 84% 30.14 in 10.0 mi North 6.9 mph - N/A   Overcast
7:54 AM 64.0 °F 57.9 °F 80% 30.13 in 10.0 mi NE 6.9 mph - N/A   Overcast
8:54 AM 64.0 °F 57.0 °F 78% 30.15 in 10.0 mi ENE 9.2 mph - N/A   Overcast
9:54 AM 66.0 °F 55.9 °F 70% 30.15 in 10.0 mi NE 8.1 mph - N/A   Overcast
10:01 AM 66.9 °F 55.9 °F 68% 30.17 in 10.0 mi NE 9.2 mph - N/A   Overcast
10:54 AM 68.0 °F 55.9 °F 65% 30.17 in 10.0 mi ENE 10.4 mph - N/A   Overcast
11:54 AM 69.1 °F 55.9 °F 63% 30.17 in 10.0 mi East 10.4 mph - N/A   Overcast
12:54 PM 71.1 °F 57.0 °F 61% 30.16 in 10.0 mi ENE 6.9 mph - N/A   Overcast
1:54 PM 73.0 °F 57.9 °F 59% 30.16 in 10.0 mi East 8.1 mph - N/A   Overcast
2:04 PM 73.0 °F 57.9 °F 59% 30.18 in 10.0 mi East 6.9 mph - N/A   Overcast
2:54 PM 75.9 °F 60.1 °F 58% 30.16 in 10.0 mi NNE 8.1 mph 16.1 mph N/A   Partly Cloudy
3:54 PM 75.9 °F 59.0 °F 56% 30.15 in 10.0 mi ENE 8.1 mph - N/A   Mostly Cloudy
4:54 PM 75.0 °F 60.1 °F 60% 30.15 in 10.0 mi NE 10.4 mph - N/A   Mostly Cloudy
5:54 PM 75.0 °F 59.0 °F 57% 30.14 in 10.0 mi East 9.2 mph - N/A   Scattered Clouds
6:54 PM 72.0 °F 57.9 °F 61% 30.14 in 10.0 mi East 9.2 mph - N/A   Partly Cloudy
7:54 PM 72.0 °F 59.0 °F 64% 30.14 in 10.0 mi East 5.8 mph - N/A   Overcast
8:54 PM 71.1 °F 59.0 °F 66% 30.14 in 10.0 mi ESE 8.1 mph - N/A   Mostly Cloudy
9:54 PM 71.1 °F 60.1 °F 68% 30.17 in 10.0 mi ENE 3.5 mph - N/A   Mostly Cloudy
10:54 PM 68.0 °F 61.0 °F 78% 30.19 in 10.0 mi ENE 4.6 mph - N/A   Overcast
11:54 PM 69.1 °F 61.0 °F 75% 30.19 in 10.0 mi East 6.9 mph - N/A   Overcast